contact:dominique.lefevre@mio.osupytheas.fr, maurice.libes@osupytheas.fr, didier.mallarino@osupytheas.fr
Project:EMSO http://www.emso-fr.org/EMSO-France
Depth: 2436.0 m
Title:EMSO Ligure Ouest : Data MII capteur AQUADOPP
Date,Latitude,Longitude,X_East,Y_North,Z_Up,Amplitude_X,Amplitude_Y,Amplitude_Z,Batterie,SoundSpeed,Heading,Pitch,Roll,Pressure,TIS,Speed,Direction
, degrees North, degrees East, m.s-1, m.s-1,m.s-1, 1, 1, 1, Volt, m.s-1, degree, degree, degree, dbar, degree_C, m.s-1, degree
2023-03-14T00:04:03,42.805,6.029,0.001,0.018,-0.004,106.0,105.0,103.0,13.4,1505.2,331.9,-0.7,1.8,2471.457,13.28,0.018,3.2
2023-03-14T00:07:03,42.805,6.029,-0.008,0.03,0.0,106.0,105.0,104.0,13.3,1505.2,321.0,-0.8,1.8,2471.453,13.29,0.031,345.1
2023-03-14T00:10:03,42.805,6.029,-0.016,0.037,-0.011,105.0,106.0,103.0,13.4,1505.2,315.5,-0.7,1.8,2471.452,13.29,0.04,336.6
2023-03-14T00:13:03,42.805,6.029,-0.033,0.031,-0.007,105.0,106.0,105.0,13.4,1505.2,319.6,-0.8,1.8,2471.455,13.29,0.045,313.2
2023-03-14T00:16:03,42.805,6.029,-0.033,0.042,-0.021,103.0,105.0,104.0,13.4,1505.2,318.9,-0.8,1.8,2471.429,13.29,0.053,321.8
2023-03-14T00:19:03,42.805,6.029,-0.007,0.033,-0.045,105.0,105.0,103.0,13.3,1505.2,331.6,-0.8,1.8,2471.417,13.29,0.033,348.0
2023-03-14T00:22:03,42.805,6.029,-0.003,0.012,-0.042,107.0,105.0,104.0,13.3,1505.2,321.3,-0.8,1.8,2471.406,13.29,0.012,346.0
2023-03-14T00:25:03,42.805,6.029,-0.023,0.044,-0.011,107.0,105.0,103.0,13.4,1505.2,320.9,-0.7,1.8,2471.383,13.29,0.049,332.4
2023-03-14T00:28:03,42.805,6.029,-0.003,0.039,-0.01,104.0,105.0,105.0,13.3,1505.2,316.1,-0.8,1.8,2471.39,13.29,0.039,355.6
2023-03-14T00:31:03,42.805,6.029,-0.022,0.033,-0.028,105.0,105.0,104.0,13.3,1505.2,318.8,-0.8,1.8,2471.378,13.29,0.039,326.3
2023-03-14T00:34:03,42.805,6.029,-0.004,0.038,-0.018,106.0,105.0,103.0,13.4,1505.2,339.9,-0.8,1.8,2471.384,13.29,0.038,354.0
2023-03-14T00:37:03,42.805,6.029,-0.03,0.026,0.0,104.0,105.0,105.0,13.3,1505.2,320.1,-0.8,1.8,2471.416,13.29,0.039,310.9
2023-03-14T00:40:03,42.805,6.029,-0.002,0.039,0.005,106.0,106.0,103.0,13.3,1505.2,332.9,-0.8,1.8,2471.424,13.29,0.039,357.1
2023-03-14T00:43:03,42.805,6.029,0.003,0.044,0.015,105.0,105.0,103.0,13.4,1505.2,321.8,-0.8,1.8,2471.397,13.29,0.044,3.9
2023-03-14T00:46:03,42.805,6.029,-0.01,0.024,-0.012,104.0,105.0,103.0,13.3,1505.2,338.9,-0.8,1.8,2471.404,13.29,0.026,337.4
2023-03-14T00:49:03,42.805,6.029,-0.025,0.014,-0.013,104.0,106.0,104.0,13.4,1505.2,320.1,-0.7,1.8,2471.382,13.29,0.028,299.3
2023-03-14T00:52:03,42.805,6.029,-0.011,0.007,-0.021,106.0,106.0,104.0,13.4,1505.2,323.4,-0.7,1.8,2471.389,13.29,0.013,302.5
2023-03-14T00:55:03,42.805,6.029,-0.026,0.025,-0.014,105.0,106.0,103.0,13.4,1505.2,316.1,-0.7,1.8,2471.407,13.29,0.036,313.9
2023-03-14T00:58:03,42.805,6.029,-0.031,0.035,-0.031,106.0,105.0,105.0,13.3,1505.2,332.0,-0.7,1.8,2471.413,13.29,0.046,318.5
2023-03-14T01:04:03,42.805,6.029,-0.04,0.022,-0.026,106.0,106.0,104.0,13.3,1505.2,316.2,-0.8,1.8,2471.397,13.29,0.045,298.8
2023-03-14T01:07:03,42.805,6.029,-0.007,0.021,-0.045,105.0,105.0,103.0,13.4,1505.2,323.2,-0.8,1.8,2471.418,13.29,0.022,341.6
2023-03-14T01:10:03,42.805,6.029,-0.048,0.019,-0.017,106.0,106.0,104.0,13.4,1505.2,323.9,-0.8,1.8,2471.484,13.29,0.051,291.6
2023-03-14T01:13:03,42.805,6.029,-0.019,0.044,-0.013,106.0,105.0,104.0,13.4,1505.2,337.8,-0.7,1.8,2471.389,13.29,0.047,336.6
2023-03-14T01:16:03,42.805,6.029,-0.021,0.032,-0.021,106.0,104.0,105.0,13.4,1505.2,326.5,-0.7,1.8,2471.342,13.29,0.038,326.7
2023-03-14T01:19:03,42.805,6.029,-0.031,0.048,-0.019,105.0,106.0,103.0,13.4,1505.2,327.9,-0.8,1.8,2471.384,13.29,0.057,327.1
2023-03-14T01:22:03,42.805,6.029,-0.041,0.043,-0.016,104.0,105.0,103.0,13.4,1505.2,331.6,-0.8,1.8,2471.425,13.29,0.059,316.4
2023-03-14T01:25:03,42.805,6.029,-0.014,0.028,-0.012,105.0,104.0,103.0,13.3,1505.2,325.4,-0.8,1.8,2471.377,13.29,0.031,333.4
2023-03-14T01:28:03,42.805,6.029,-0.01,0.041,0.003,109.0,106.0,103.0,13.3,1505.2,321.6,-0.7,1.8,2471.359,13.29,0.042,346.3
2023-03-14T01:31:03,42.805,6.029,-0.018,0.034,-0.009,105.0,106.0,103.0,13.4,1505.2,325.0,-0.8,1.9,2471.386,13.29,0.038,332.1
2023-03-14T01:34:03,42.805,6.029,-0.006,0.023,0.012,104.0,106.0,103.0,13.3,1505.2,330.9,-0.8,1.8,2471.384,13.29,0.023,345.4
2023-03-14T01:37:03,42.805,6.029,-0.015,0.035,0.004,105.0,106.0,103.0,13.4,1505.2,327.5,-0.8,1.8,2471.382,13.29,0.038,336.8
2023-03-14T01:40:03,42.805,6.029,-0.02,0.031,-0.001,106.0,105.0,103.0,13.4,1505.2,325.4,-0.7,1.8,2471.374,13.29,0.036,327.2
2023-03-14T01:43:03,42.805,6.029,-0.016,0.038,0.006,105.0,104.0,104.0,13.3,1505.2,322.2,-0.8,1.8,2471.378,13.29,0.041,337.2
2023-03-14T01:46:03,42.805,6.029,-0.004,0.027,-0.022,105.0,105.0,104.0,13.4,1505.2,331.3,-0.8,1.8,2471.378,13.29,0.027,351.6
2023-03-14T01:49:03,42.805,6.029,-0.003,0.033,-0.019,105.0,106.0,103.0,13.4,1505.2,336.9,-0.8,1.9,2471.401,13.29,0.033,354.8
2023-03-14T01:52:03,42.805,6.029,-0.002,0.02,0.012,106.0,106.0,103.0,13.3,1505.2,333.8,-0.8,1.8,2471.402,13.29,0.02,354.3
2023-03-14T01:55:03,42.805,6.029,-0.008,0.037,-0.008,106.0,104.0,104.0,13.4,1505.2,338.5,-0.8,1.8,2471.383,13.29,0.037,347.8
2023-03-14T01:58:03,42.805,6.029,-0.038,0.022,-0.006,105.0,106.0,103.0,13.4,1505.2,316.7,-0.7,1.8,2471.375,13.29,0.043,300.1
2023-03-14T02:04:03,42.805,6.029,-0.005,0.029,0.003,105.0,106.0,104.0,13.4,1505.2,341.8,-0.8,1.8,2471.42,13.29,0.029,350.2
2023-03-14T02:07:03,42.805,6.029,-0.009,0.029,0.003,106.0,106.0,103.0,13.3,1505.2,331.5,-0.8,1.8,2471.399,13.29,0.03,342.8
2023-03-14T02:10:03,42.805,6.029,-0.012,0.041,-0.008,106.0,106.0,105.0,13.3,1505.2,340.9,-0.8,1.8,2471.417,13.29,0.042,343.7
2023-03-14T02:13:03,42.805,6.029,-0.013,0.037,0.011,107.0,103.0,103.0,13.4,1505.2,325.5,-0.8,1.9,2471.393,13.29,0.039,340.6
2023-03-14T02:16:03,42.805,6.029,-0.03,0.041,-0.007,107.0,105.0,103.0,13.4,1505.2,331.5,-0.8,1.8,2471.389,13.29,0.05,323.8
2023-03-14T02:19:03,42.805,6.029,-0.033,0.021,-0.044,105.0,105.0,104.0,13.4,1505.2,333.8,-0.8,1.8,2471.375,13.29,0.039,302.5
2023-03-14T02:22:03,42.805,6.029,-0.01,0.005,-0.033,104.0,105.0,105.0,13.3,1505.2,321.4,-0.8,1.8,2471.371,13.29,0.011,296.6
2023-03-14T02:25:03,42.805,6.029,-0.026,0.011,-0.012,106.0,106.0,103.0,13.4,1505.2,319.3,-0.8,1.8,2471.379,13.29,0.028,292.9
2023-03-14T02:28:03,42.805,6.029,-0.024,0.025,-0.021,105.0,104.0,103.0,13.4,1505.2,321.3,-0.8,1.8,2471.395,13.29,0.034,316.2
2023-03-14T02:31:03,42.805,6.029,-0.002,0.009,-0.006,106.0,106.0,104.0,13.4,1505.2,330.8,-0.8,1.8,2471.348,13.29,0.009,347.5
2023-03-14T02:34:03,42.805,6.029,-0.024,0.038,-0.003,107.0,105.0,104.0,13.4,1505.2,335.1,-0.8,1.8,2471.375,13.29,0.044,327.7
2023-03-14T02:37:03,42.805,6.029,-0.025,0.034,-0.027,105.0,106.0,105.0,13.4,1505.2,342.2,-0.7,1.8,2471.315,13.29,0.042,323.7
2023-03-14T02:40:03,42.805,6.029,-0.035,0.026,-0.001,105.0,106.0,105.0,13.4,1505.2,321.0,-0.7,1.8,2471.348,13.29,0.043,306.6
2023-03-14T02:43:03,42.805,6.029,-0.015,0.007,-0.003,105.0,107.0,105.0,13.3,1505.2,320.9,-0.8,1.8,2471.413,13.29,0.016,295.0
2023-03-14T02:46:03,42.805,6.029,-0.031,0.022,-0.017,105.0,106.0,103.0,13.4,1505.2,325.1,-0.8,1.8,2471.369,13.29,0.038,305.4
2023-03-14T02:49:03,42.805,6.029,-0.023,0.01,0.003,108.0,106.0,104.0,13.4,1505.2,325.3,-0.7,1.8,2471.332,13.29,0.025,293.5
2023-03-14T02:52:03,42.805,6.029,-0.056,0.035,-0.016,106.0,104.0,105.0,13.4,1505.2,317.4,-0.8,1.8,2471.405,13.29,0.066,302.0
2023-03-14T02:55:03,42.805,6.029,-0.022,0.043,-0.004,105.0,109.0,104.0,13.4,1505.2,318.9,-0.7,1.8,2471.368,13.29,0.048,332.9
2023-03-14T02:58:03,42.805,6.029,-0.026,0.02,-0.02,106.0,106.0,104.0,13.4,1505.2,315.0,-0.8,1.8,2471.383,13.29,0.032,307.6
2023-03-14T03:04:03,42.805,6.029,-0.014,0.013,-0.034,103.0,105.0,104.0,13.4,1505.2,328.6,-0.7,1.8,2471.431,13.29,0.019,312.9
2023-03-14T03:07:03,42.805,6.029,-0.022,0.029,-0.013,106.0,105.0,104.0,13.4,1505.2,327.7,-0.8,1.8,2471.388,13.29,0.036,322.8
2023-03-14T03:10:03,42.805,6.029,-0.024,0.031,0.02,106.0,105.0,104.0,13.3,1505.2,324.6,-0.8,1.8,2471.435,13.29,0.039,322.3
2023-03-14T03:13:03,42.805,6.029,-0.02,0.024,-0.022,105.0,106.0,104.0,13.4,1505.2,338.3,-0.8,1.8,2471.408,13.29,0.031,320.2
2023-03-14T03:16:03,42.805,6.029,-0.016,0.037,0.003,107.0,105.0,104.0,13.3,1505.2,339.6,-0.8,1.8,2471.387,13.29,0.04,336.6
2023-03-14T03:19:03,42.805,6.029,-0.012,0.005,0.002,106.0,106.0,103.0,13.3,1505.2,315.6,-0.8,1.8,2471.38,13.29,0.013,292.6
2023-03-14T03:22:03,42.805,6.029,-0.001,0.007,0.002,107.0,107.0,103.0,13.4,1505.2,332.6,-0.7,1.9,2471.373,13.29,0.007,351.9
2023-03-14T03:25:03,42.805,6.029,-0.02,0.036,-0.02,105.0,104.0,103.0,13.4,1505.2,332.1,-0.8,1.8,2471.373,13.29,0.041,330.9
2023-03-14T03:28:03,42.805,6.029,-0.002,0.031,0.008,103.0,105.0,104.0,13.4,1505.2,341.9,-0.8,1.8,2471.358,13.29,0.031,356.3
2023-03-14T03:31:03,42.805,6.029,-0.042,0.04,-0.014,105.0,105.0,103.0,13.4,1505.2,329.3,-0.8,1.8,2471.354,13.29,0.057,313.6
2023-03-14T03:34:03,42.805,6.029,-0.017,0.039,-0.03,105.0,106.0,104.0,13.4,1505.2,328.8,-0.7,1.8,2471.384,13.29,0.042,336.5
2023-03-14T03:37:03,42.805,6.029,-0.008,0.032,-0.015,107.0,105.0,104.0,13.4,1505.2,340.3,-0.8,1.8,2471.354,13.29,0.032,346.0
2023-03-14T03:40:03,42.805,6.029,-0.018,0.011,0.009,105.0,103.0,105.0,13.4,1505.2,325.2,-0.8,1.8,2471.344,13.29,0.021,301.4
2023-03-14T03:43:03,42.805,6.029,-0.031,0.028,0.0,103.0,107.0,104.0,13.3,1505.2,323.1,-0.8,1.8,2471.388,13.29,0.041,312.1
2023-03-14T03:46:03,42.805,6.029,0.003,0.025,0.008,105.0,105.0,104.0,13.3,1505.2,324.6,-0.8,1.8,2471.346,13.29,0.025,6.8
2023-03-14T03:49:03,42.805,6.029,-0.022,0.019,-0.038,107.0,106.0,103.0,13.4,1505.2,327.6,-0.8,1.8,2471.38,13.29,0.029,310.8
2023-03-14T03:52:03,42.805,6.029,-0.028,0.043,0.016,106.0,105.0,104.0,13.4,1505.2,330.1,-0.8,1.8,2471.366,13.29,0.051,326.9
2023-03-14T03:55:03,42.805,6.029,-0.028,0.039,-0.019,105.0,107.0,104.0,13.3,1505.2,333.8,-0.7,1.9,2471.352,13.29,0.048,324.3
2023-03-14T03:58:03,42.805,6.029,-0.002,0.02,-0.014,105.0,106.0,104.0,13.3,1505.2,323.9,-0.8,1.8,2471.346,13.29,0.02,354.3
2023-03-14T04:04:03,42.805,6.029,-0.014,0.016,-0.024,104.0,106.0,104.0,13.4,1505.2,325.3,-0.8,1.8,2471.39,13.29,0.021,318.8
2023-03-14T04:07:03,42.805,6.029,-0.025,0.019,-0.006,108.0,105.0,103.0,13.4,1505.2,332.6,-0.7,1.8,2471.409,13.29,0.031,307.2
2023-03-14T04:10:03,42.805,6.029,-0.022,0.031,-0.003,106.0,106.0,104.0,13.3,1505.2,325.7,-0.8,1.8,2471.402,13.29,0.038,324.6
2023-03-14T04:13:03,42.805,6.029,-0.033,0.034,-0.021,104.0,105.0,104.0,13.3,1505.2,324.1,-0.7,1.8,2471.394,13.29,0.047,315.9
2023-03-14T04:16:03,42.805,6.029,-0.04,0.033,0.0,106.0,105.0,104.0,13.4,1505.2,322.1,-0.8,1.8,2471.339,13.29,0.051,309.5
2023-03-14T04:19:03,42.805,6.029,-0.022,0.033,0.015,106.0,107.0,104.0,13.3,1505.2,320.5,-0.8,1.8,2471.384,13.29,0.039,326.3
2023-03-14T04:22:03,42.805,6.029,-0.022,0.018,-0.011,107.0,106.0,104.0,13.4,1505.2,325.0,-0.8,1.8,2471.378,13.29,0.028,309.3
2023-03-14T04:25:03,42.805,6.029,-0.007,0.014,-0.037,108.0,106.0,104.0,13.4,1505.2,339.7,-0.8,1.8,2471.353,13.29,0.015,333.4
2023-03-14T04:28:03,42.805,6.029,-0.036,0.014,-0.019,108.0,106.0,103.0,13.4,1505.2,317.2,-0.8,1.8,2471.351,13.29,0.038,291.2
2023-03-14T04:31:03,42.805,6.029,-0.025,0.029,-0.027,105.0,105.0,104.0,13.4,1505.2,322.5,-0.8,1.8,2471.311,13.29,0.038,319.2
2023-03-14T04:34:03,42.805,6.029,-0.04,0.029,-0.017,106.0,105.0,103.0,13.4,1505.2,317.4,-0.8,1.8,2471.366,13.29,0.049,305.9
2023-03-14T04:37:03,42.805,6.029,-0.02,0.036,-0.006,105.0,105.0,102.0,13.4,1505.2,327.9,-0.8,1.8,2471.36,13.29,0.041,330.9
2023-03-14T04:40:03,42.805,6.029,-0.015,0.027,-0.005,105.0,105.0,104.0,13.4,1505.2,331.1,-0.8,1.8,2471.338,13.29,0.03,330.9
2023-03-14T04:43:03,42.805,6.029,0.016,0.024,-0.001,105.0,105.0,104.0,13.4,1505.2,336.6,-0.7,1.8,2471.357,13.29,0.028,33.7
2023-03-14T04:46:03,42.805,6.029,-0.021,0.024,-0.007,105.0,106.0,103.0,13.4,1505.2,329.6,-0.7,1.8,2471.349,13.29,0.031,318.8
2023-03-14T04:49:03,42.805,6.029,-0.02,0.019,-0.016,106.0,106.0,104.0,13.3,1505.2,329.2,-0.8,1.8,2471.356,13.29,0.027,313.5
2023-03-14T04:52:03,42.805,6.029,-0.026,0.019,-0.03,105.0,106.0,104.0,13.4,1505.2,324.0,-0.8,1.8,2471.338,13.29,0.032,306.2
2023-03-14T04:55:03,42.805,6.029,-0.012,0.025,-0.001,105.0,104.0,105.0,13.3,1505.2,341.5,-0.8,1.9,2471.34,13.29,0.027,334.4
2023-03-14T04:58:03,42.805,6.029,-0.019,0.018,-0.036,108.0,106.0,104.0,13.4,1505.2,326.3,-0.8,1.8,2471.317,13.29,0.026,313.5
2023-03-14T05:04:03,42.805,6.029,-0.036,0.041,-0.028,105.0,105.0,104.0,13.3,1505.2,329.3,-0.8,1.8,2471.378,13.29,0.054,318.7
2023-03-14T05:07:03,42.805,6.029,-0.026,0.031,0.004,106.0,104.0,102.0,13.4,1505.2,318.8,-0.8,1.8,2471.357,13.29,0.04,320.0
2023-03-14T05:10:03,42.805,6.029,-0.026,0.044,0.006,105.0,105.0,103.0,13.3,1505.2,333.8,-0.8,1.8,2471.379,13.29,0.051,329.4
2023-03-14T05:13:03,42.805,6.029,-0.036,0.026,-0.008,106.0,105.0,103.0,13.3,1505.2,322.5,-0.8,1.8,2471.4,13.29,0.044,305.8
2023-03-14T05:16:03,42.805,6.029,-0.043,0.03,-0.017,104.0,105.0,105.0,13.4,1505.2,322.7,-0.7,1.8,2471.359,13.29,0.052,304.9
2023-03-14T05:19:03,42.805,6.029,-0.038,0.038,-0.032,105.0,105.0,103.0,13.4,1505.2,325.1,-0.8,1.8,2471.362,13.29,0.053,315.0
2023-03-14T05:22:03,42.805,6.029,-0.025,0.023,0.013,106.0,105.0,103.0,13.4,1505.2,324.3,-0.8,1.8,2471.328,13.29,0.033,312.6
2023-03-14T05:25:03,42.805,6.029,-0.05,0.029,-0.03,105.0,106.0,104.0,13.4,1505.2,329.3,-0.8,1.8,2471.355,13.29,0.057,300.1
2023-03-14T05:28:03,42.805,6.029,-0.029,0.028,-0.003,105.0,105.0,104.0,13.3,1505.2,318.0,-0.8,1.8,2471.347,13.29,0.04,314.0
2023-03-14T05:31:03,42.805,6.029,-0.01,0.016,-0.037,106.0,105.0,104.0,13.4,1505.2,332.1,-0.8,1.8,2471.374,13.29,0.018,328.0
2023-03-14T05:34:03,42.805,6.029,-0.008,0.038,0.005,105.0,104.0,104.0,13.3,1505.2,335.8,-0.8,1.8,2471.326,13.29,0.038,348.1
2023-03-14T05:37:03,42.805,6.029,-0.032,0.038,0.001,105.0,104.0,103.0,13.3,1505.2,318.5,-0.8,1.8,2471.349,13.29,0.049,319.9
2023-03-14T05:40:03,42.805,6.029,-0.014,0.026,-0.016,105.0,105.0,103.0,13.3,1505.2,321.2,-0.8,1.8,2471.329,13.29,0.029,331.7
2023-03-14T05:43:03,42.805,6.029,0.004,0.029,0.007,105.0,105.0,104.0,13.3,1505.2,335.1,-0.8,1.8,2471.326,13.29,0.029,7.8
2023-03-14T05:46:03,42.805,6.029,-0.023,0.039,-0.012,105.0,104.0,103.0,13.4,1505.2,325.5,-0.8,1.8,2471.35,13.29,0.045,329.5
2023-03-14T05:49:03,42.805,6.029,-0.048,0.021,-0.024,105.0,105.0,104.0,13.4,1505.2,317.7,-0.8,1.8,2471.296,13.29,0.052,293.6
2023-03-14T05:52:03,42.805,6.029,-0.017,0.021,-0.018,105.0,106.0,104.0,13.4,1505.2,328.7,-0.8,1.8,2471.363,13.29,0.027,321.0
2023-03-14T05:55:03,42.805,6.029,-0.019,0.043,-0.011,104.0,106.0,104.0,13.3,1505.2,327.3,-0.8,1.8,2471.328,13.29,0.047,336.2
2023-03-14T05:58:03,42.805,6.029,-0.023,0.028,-0.022,107.0,103.0,104.0,13.3,1505.2,316.1,-0.8,1.8,2471.335,13.29,0.036,320.6
2023-03-14T06:04:03,42.805,6.029,-0.037,0.019,-0.02,105.0,104.0,104.0,13.4,1505.2,333.0,-0.8,1.8,2471.374,13.29,0.041,297.2
2023-03-14T06:07:03,42.805,6.029,-0.046,0.012,-0.017,105.0,107.0,104.0,13.4,1505.2,327.0,-0.8,1.9,2471.373,13.29,0.047,284.6
2023-03-14T06:10:03,42.805,6.029,-0.024,0.039,-0.011,106.0,105.0,104.0,13.4,1505.2,328.7,-0.8,1.8,2471.383,13.29,0.045,328.4
2023-03-14T06:13:03,42.805,6.029,-0.001,0.038,0.011,105.0,106.0,103.0,13.3,1505.2,336.5,-0.8,1.8,2471.367,13.29,0.038,358.5
2023-03-14T06:16:03,42.805,6.029,-0.012,0.006,-0.023,104.0,106.0,103.0,13.3,1505.2,333.4,-0.8,1.8,2471.374,13.29,0.013,296.6
2023-03-14T06:19:03,42.805,6.029,-0.027,0.042,0.004,105.0,106.0,104.0,13.4,1505.2,327.4,-0.8,1.8,2471.332,13.29,0.049,327.3
2023-03-14T06:22:03,42.805,6.029,-0.026,0.025,-0.015,105.0,106.0,103.0,13.4,1505.2,334.2,-0.8,1.8,2471.339,13.29,0.036,313.9
2023-03-14T06:25:03,42.805,6.029,-0.044,0.03,-0.011,105.0,105.0,104.0,13.4,1505.2,327.2,-0.7,1.8,2471.31,13.29,0.053,304.3
2023-03-14T06:28:03,42.805,6.029,-0.041,0.03,-0.035,103.0,106.0,104.0,13.3,1505.2,325.6,-0.8,1.8,2471.341,13.29,0.05,306.2
2023-03-14T06:31:03,42.805,6.029,-0.017,0.036,-0.015,107.0,106.0,103.0,13.4,1505.2,331.1,-0.8,1.8,2471.345,13.29,0.039,334.7
2023-03-14T06:34:03,42.805,6.029,-0.017,0.025,-0.007,105.0,105.0,103.0,13.4,1505.2,335.0,-0.8,1.8,2471.327,13.29,0.03,325.8
2023-03-14T06:37:03,42.805,6.029,-0.023,0.023,-0.024,105.0,104.0,104.0,13.3,1505.2,324.1,-0.7,1.8,2471.321,13.29,0.032,315.0
2023-03-14T06:40:03,42.805,6.029,-0.027,0.025,-0.024,105.0,105.0,104.0,13.4,1505.2,327.9,-0.7,1.8,2471.31,13.29,0.036,312.8
2023-03-14T06:43:03,42.805,6.029,-0.03,0.024,-0.013,105.0,105.0,104.0,13.4,1505.2,332.1,-0.8,1.8,2471.314,13.29,0.038,308.7
2023-03-14T06:46:03,42.805,6.029,-0.04,0.029,0.007,106.0,105.0,105.0,13.4,1505.2,322.7,-0.7,1.8,2471.322,13.29,0.049,305.9
2023-03-14T06:49:03,42.805,6.029,-0.029,0.032,-0.016,106.0,104.0,103.0,13.4,1505.2,332.6,-0.8,1.8,2471.291,13.29,0.043,317.8
2023-03-14T06:52:03,42.805,6.029,-0.029,0.012,0.0,105.0,105.0,104.0,13.4,1505.2,333.0,-0.8,1.8,2471.301,13.29,0.031,292.5
2023-03-14T06:55:03,42.805,6.029,-0.025,0.02,-0.017,106.0,105.0,104.0,13.4,1505.2,331.5,-0.7,1.8,2471.269,13.29,0.032,308.7
2023-03-14T06:58:03,42.805,6.029,-0.018,0.031,-0.027,106.0,105.0,105.0,13.4,1505.2,338.5,-0.8,1.8,2471.314,13.29,0.035,329.9
2023-03-14T07:04:03,42.805,6.029,-0.024,0.023,-0.024,105.0,104.0,104.0,13.4,1505.2,330.6,-0.8,1.8,2471.336,13.29,0.033,313.8
2023-03-14T07:07:03,42.805,6.029,-0.025,0.024,-0.008,106.0,104.0,103.0,13.3,1505.2,317.6,-0.8,1.8,2471.362,13.29,0.034,313.8
2023-03-14T07:10:03,42.805,6.029,-0.019,0.025,0.0,105.0,106.0,102.0,13.4,1505.2,323.9,-0.8,1.8,2471.399,13.29,0.031,322.8
2023-03-14T07:13:03,42.805,6.029,-0.023,0.004,0.01,107.0,106.0,104.0,13.4,1505.2,323.8,-0.7,1.8,2471.365,13.29,0.023,279.9
2023-03-14T07:16:03,42.805,6.029,-0.017,0.017,-0.021,106.0,107.0,103.0,13.3,1505.2,326.8,-0.8,1.8,2471.367,13.29,0.024,315.0
2023-03-14T07:19:03,42.805,6.029,-0.032,0.016,-0.012,106.0,104.0,102.0,13.4,1505.2,324.1,-0.8,1.8,2471.375,13.29,0.035,296.6
2023-03-14T07:22:03,42.805,6.029,-0.04,0.013,-0.06,105.0,104.0,103.0,13.4,1505.2,324.3,-0.8,1.8,2471.356,13.29,0.042,288.0
2023-03-14T07:25:03,42.805,6.029,-0.049,0.03,-0.009,105.0,104.0,104.0,13.4,1505.2,331.1,-0.8,1.8,2471.306,13.29,0.057,301.5
2023-03-14T07:28:03,42.805,6.029,-0.051,0.042,-0.003,105.0,105.0,104.0,13.4,1505.2,329.2,-0.8,1.8,2471.357,13.29,0.066,309.5
2023-03-14T07:31:03,42.805,6.029,-0.028,0.033,-0.013,104.0,104.0,103.0,13.3,1505.2,321.6,-0.8,1.8,2471.353,13.29,0.043,319.7
2023-03-14T07:34:03,42.805,6.029,-0.043,0.037,-0.005,105.0,104.0,103.0,13.4,1505.2,324.5,-0.8,1.8,2471.327,13.29,0.056,310.7
2023-03-14T07:37:03,42.805,6.029,-0.021,0.025,-0.014,107.0,105.0,103.0,13.4,1505.2,331.3,-0.8,1.8,2471.324,13.29,0.032,320.0
2023-03-14T07:40:03,42.805,6.029,-0.045,0.041,-0.007,106.0,106.0,103.0,13.4,1505.2,332.9,-0.7,1.8,2471.357,13.29,0.06,312.3
2023-03-14T07:43:03,42.805,6.029,-0.043,0.043,-0.013,105.0,107.0,103.0,13.4,1505.2,339.2,-0.8,1.9,2471.314,13.29,0.06,315.0
2023-03-14T07:46:03,42.805,6.029,-0.043,0.02,0.0,105.0,104.0,104.0,13.3,1505.2,326.0,-0.8,1.8,2471.332,13.29,0.047,294.9
2023-03-14T07:49:03,42.805,6.029,-0.018,0.014,-0.014,105.0,105.0,104.0,13.3,1505.2,337.8,-0.8,1.8,2471.34,13.29,0.022,307.9
2023-03-14T07:52:03,42.805,6.029,-0.021,0.008,-0.019,105.0,105.0,103.0,13.3,1505.2,320.7,-0.8,1.8,2471.338,13.29,0.022,290.9
2023-03-14T07:55:03,42.805,6.029,-0.027,0.032,-0.011,106.0,104.0,105.0,13.4,1505.2,326.3,-0.8,1.8,2471.312,13.29,0.041,319.8
2023-03-14T07:58:03,42.805,6.029,-0.035,0.037,-0.035,106.0,105.0,104.0,13.3,1505.2,341.9,-0.8,1.8,2471.338,13.29,0.05,316.6
2023-03-14T08:04:03,42.805,6.029,-0.01,0.016,-0.014,109.0,106.0,103.0,13.4,1505.2,317.2,-0.7,1.8,2471.384,13.29,0.018,328.0
2023-03-14T08:07:03,42.805,6.029,-0.021,0.028,-0.021,106.0,105.0,103.0,13.3,1505.2,333.8,-0.8,1.8,2471.444,13.29,0.035,323.1
2023-03-14T08:10:03,42.805,6.029,-0.028,0.02,-0.011,106.0,104.0,103.0,13.4,1505.2,328.0,-0.7,1.8,2471.401,13.29,0.034,305.5
2023-03-14T08:13:03,42.805,6.029,-0.02,0.0,-0.026,108.0,104.0,104.0,13.4,1505.2,321.0,-0.8,1.8,2471.35,13.29,0.02,270.0
2023-03-14T08:16:03,42.805,6.029,-0.018,0.012,-0.017,105.0,105.0,104.0,13.4,1505.2,324.1,-0.8,1.8,2471.373,13.29,0.021,303.7
2023-03-14T08:19:03,42.805,6.029,-0.017,0.023,-0.012,105.0,105.0,103.0,13.4,1505.2,327.1,-0.7,1.8,2471.402,13.29,0.028,323.5
2023-03-14T08:22:03,42.805,6.029,-0.046,0.021,-0.013,105.0,104.0,103.0,13.3,1505.2,322.9,-0.7,1.8,2471.347,13.29,0.05,294.5
2023-03-14T08:25:03,42.805,6.029,-0.023,0.026,-0.012,106.0,105.0,103.0,13.4,1505.2,321.3,-0.7,1.8,2471.365,13.29,0.034,318.5
2023-03-14T08:28:03,42.805,6.029,-0.01,0.035,-0.01,104.0,104.0,104.0,13.4,1505.2,323.6,-0.8,1.8,2471.366,13.29,0.036,344.1
2023-03-14T08:31:03,42.805,6.029,-0.016,0.037,-0.024,104.0,103.0,103.0,13.3,1505.2,321.2,-0.8,1.8,2471.357,13.29,0.04,336.6
2023-03-14T08:34:03,42.805,6.029,-0.027,0.027,-0.007,104.0,105.0,103.0,13.4,1505.2,323.3,-0.8,1.8,2471.357,13.29,0.038,315.0
2023-03-14T08:37:03,42.805,6.029,-0.027,0.011,-0.023,105.0,106.0,102.0,13.4,1505.2,332.9,-0.8,1.8,2471.352,13.29,0.029,292.2
2023-03-14T08:40:03,42.805,6.029,-0.047,0.04,0.0,105.0,105.0,103.0,13.4,1505.2,327.4,-0.8,1.8,2471.328,13.29,0.061,310.4
2023-03-14T08:43:03,42.805,6.029,-0.044,0.024,-0.028,104.0,104.0,104.0,13.4,1505.2,331.6,-0.7,1.8,2471.379,13.29,0.05,298.6
2023-03-14T08:46:03,42.805,6.029,-0.015,0.02,-0.029,105.0,104.0,104.0,13.4,1505.2,322.9,-0.8,1.8,2471.378,13.29,0.025,323.1
2023-03-14T08:49:03,42.805,6.029,-0.038,0.028,-0.034,105.0,105.0,104.0,13.4,1505.2,331.1,-0.8,1.8,2471.37,13.29,0.047,306.4
2023-03-14T08:52:03,42.805,6.029,-0.004,0.025,0.007,105.0,107.0,104.0,13.4,1505.2,332.6,-0.8,1.8,2471.381,13.29,0.025,350.9
2023-03-14T08:55:03,42.805,6.029,-0.008,0.009,-0.005,107.0,106.0,104.0,13.4,1505.2,325.2,-0.7,1.8,2471.386,13.29,0.012,318.4
2023-03-14T08:58:03,42.805,6.029,-0.013,0.027,-0.004,106.0,104.0,103.0,13.3,1505.2,331.8,-0.8,1.8,2471.37,13.29,0.029,334.3
2023-03-14T09:04:03,42.805,6.029,-0.022,0.029,-0.011,105.0,105.0,103.0,13.3,1505.2,323.8,-0.8,1.8,2471.406,13.29,0.036,322.8
2023-03-14T09:07:03,42.805,6.029,-0.048,0.012,0.0,105.0,105.0,104.0,13.4,1505.2,319.4,-0.8,1.8,2471.38,13.29,0.049,284.0
2023-03-14T09:10:03,42.805,6.029,-0.031,0.042,-0.015,105.0,105.0,103.0,13.3,1505.2,333.8,-0.8,1.8,2471.416,13.29,0.052,323.6
2023-03-14T09:13:03,42.805,6.029,-0.031,0.028,0.01,105.0,104.0,103.0,13.3,1505.2,319.9,-0.8,1.8,2471.391,13.29,0.041,312.1
2023-03-14T09:16:03,42.805,6.029,-0.042,0.041,-0.01,105.0,105.0,104.0,13.4,1505.2,328.7,-0.8,1.8,2471.415,13.29,0.058,314.3
2023-03-14T09:19:03,42.805,6.029,-0.024,0.017,-0.04,105.0,104.0,104.0,13.4,1505.2,320.9,-0.7,1.8,2471.422,13.29,0.029,305.3
2023-03-14T09:22:03,42.805,6.029,-0.036,0.044,0.0,104.0,105.0,103.0,13.3,1505.2,333.8,-0.8,1.8,2471.366,13.29,0.056,320.7
2023-03-14T09:25:03,42.805,6.029,-0.03,0.023,0.013,105.0,106.0,103.0,13.4,1505.2,322.5,-0.8,1.8,2471.369,13.29,0.037,307.5
2023-03-14T09:28:03,42.805,6.029,-0.013,0.036,-0.008,106.0,105.0,103.0,13.4,1505.2,338.5,-0.7,1.8,2471.409,13.29,0.038,340.1
2023-03-14T09:31:03,42.805,6.029,-0.029,0.017,-0.023,106.0,105.0,102.0,13.4,1505.2,328.8,-0.7,1.8,2471.38,13.29,0.033,300.4
2023-03-14T09:34:03,42.805,6.029,-0.057,0.012,-0.038,106.0,104.0,103.0,13.4,1505.2,323.1,-0.8,1.8,2471.431,13.29,0.058,281.9
2023-03-14T09:37:03,42.805,6.029,-0.038,0.028,-0.003,107.0,105.0,103.0,13.3,1505.2,318.5,-0.8,1.9,2471.402,13.29,0.047,306.4
2023-03-14T09:40:03,42.805,6.029,-0.031,0.045,-0.007,106.0,104.0,104.0,13.3,1505.2,327.6,-0.8,1.8,2471.414,13.29,0.054,325.4
2023-03-14T09:43:03,42.805,6.029,-0.034,0.015,0.0,105.0,105.0,105.0,13.4,1505.2,330.1,-0.8,1.8,2471.407,13.29,0.037,293.8
2023-03-14T09:46:03,42.805,6.029,-0.052,0.047,0.001,105.0,103.0,103.0,13.3,1505.2,327.9,-0.8,1.8,2471.422,13.29,0.07,312.1
2023-03-14T09:49:03,42.805,6.029,-0.027,0.019,-0.041,104.0,106.0,105.0,13.3,1505.2,334.2,-0.7,1.8,2471.407,13.29,0.033,305.1
2023-03-14T09:52:03,42.805,6.029,-0.031,0.035,-0.015,105.0,105.0,103.0,13.4,1505.2,341.9,-0.8,1.8,2471.416,13.29,0.046,318.5
2023-03-14T09:55:03,42.805,6.029,-0.023,0.023,-0.033,105.0,105.0,104.0,13.4,1505.2,335.8,-0.8,1.8,2471.424,13.29,0.032,315.0